ACA7249 KORD-CYUL

Flight info

Callsign ACA7249
Flight time N/A
Altitude 41000
Route EBAKE DCT WISMO DCT POSTS DCT PADDE DCT SVM Q951 SANIN DCT MIGLO HABBS7
Aircraft B763/H-SDE3FGHIM3RWXY/LB1

Departure

Time 2026-05-05 17:32
Airport Chicago O'Hare International Airport (KORD)

Arrival

Time N/A
Airport Montreal / Pierre Elliott Trudeau International Airport (CYUL)
Time Latitude Longitude Altitude Speed Heading
2026-05-05 17:31 42.01650 -87.73276 10584 ft 343 kts 43°
2026-05-05 17:32 42.03190 -87.70622 10998 ft 377 kts 54°
2026-05-05 17:32 42.04627 -87.67467 11427 ft 408 kts 58°
2026-05-05 17:32 42.05996 -87.64171 12560 ft 414 kts 59°
2026-05-05 17:32 42.07374 -87.60719 13522 ft 425 kts 59°
2026-05-05 17:33 42.08739 -87.57204 14629 ft 431 kts 60°
2026-05-05 17:33 42.10126 -87.53598 15548 ft 440 kts 60°
2026-05-05 17:33 42.11521 -87.49937 16567 ft 446 kts 60°
2026-05-05 17:33 42.12950 -87.46180 17465 ft 455 kts 60°
2026-05-05 17:34 42.14385 -87.42390 18452 ft 460 kts 60°
2026-05-05 17:34 42.15839 -87.38548 19331 ft 468 kts 60°
2026-05-05 17:34 42.17314 -87.34637 20201 ft 475 kts 61°
2026-05-05 17:34 42.18823 -87.30639 20976 ft 484 kts 60°
2026-05-05 17:35 42.20344 -87.26599 21783 ft 489 kts 60°
2026-05-05 17:35 42.21903 -87.22456 22433 ft 499 kts 61°
2026-05-05 17:35 42.23470 -87.18283 23175 ft 504 kts 61°
2026-05-05 17:35 42.25051 -87.14066 23820 ft 511 kts 60°
2026-05-05 17:36 42.26543 -87.09705 24514 ft 518 kts 67°
2026-05-05 17:36 42.27594 -87.05008 25112 ft 526 kts 78°
2026-05-05 17:36 42.28117 -87.00186 25839 ft 528 kts 86°
2026-05-05 17:36 42.28354 -86.95244 26388 ft 534 kts 88°
2026-05-05 17:37 42.28581 -86.90202 27057 ft 537 kts 89°
2026-05-05 17:37 42.28720 -86.86873 27336 ft 542 kts 89°
2026-05-05 17:37 42.28997 -86.80068 28134 ft 547 kts 89°
2026-05-05 17:37 42.29198 -86.74985 28728 ft 550 kts 88°
2026-05-05 17:38 42.29400 -86.69792 29191 ft 556 kts 88°
2026-05-05 17:38 42.29599 -86.64619 29695 ft 559 kts 89°
2026-05-05 17:38 42.29800 -86.59331 30331 ft 560 kts 89°
2026-05-05 17:38 42.29995 -86.54098 30537 ft 569 kts 89°
2026-05-05 17:39 42.30189 -86.48801 31107 ft 569 kts 89°
2026-05-05 17:39 42.30384 -86.43490 31853 ft 566 kts 89°
2026-05-05 17:39 42.30574 -86.38209 32310 ft 567 kts 89°
2026-05-05 17:39 42.30763 -86.32885 32907 ft 567 kts 89°
2026-05-05 17:40 42.30949 -86.27603 33399 ft 567 kts 89°
2026-05-05 17:40 42.31131 -86.22292 33862 ft 568 kts 89°
2026-05-05 17:40 42.31312 -86.17027 34357 ft 568 kts 89°
2026-05-05 17:40 42.31490 -86.11701 34768 ft 568 kts 89°
2026-05-05 17:41 42.31568 -86.06358 35072 ft 568 kts 92°
2026-05-05 17:41 42.31486 -86.01079 35433 ft 567 kts 92°
2026-05-05 17:41 42.31420 -85.95758 35889 ft 564 kts 91°
2026-05-05 17:41 42.31356 -85.90543 36106 ft 566 kts 92°
2026-05-05 17:42 42.31291 -85.85177 36358 ft 566 kts 91°
2026-05-05 17:42 42.31224 -85.79955 36838 ft 562 kts 91°
2026-05-05 17:42 42.31155 -85.74636 37119 ft 564 kts 91°
2026-05-05 17:42 42.31086 -85.69415 37454 ft 565 kts 91°
2026-05-05 17:43 42.31010 -85.64101 37802 ft 564 kts 90°
2026-05-05 17:43 42.30935 -85.58827 38124 ft 564 kts 90°
2026-05-05 17:43 42.30859 -85.53538 38455 ft 564 kts 90°
2026-05-05 17:43 42.30778 -85.48275 38817 ft 562 kts 90°
2026-05-05 17:44 42.30696 -85.43072 39099 ft 562 kts 90°
2026-05-05 17:44 42.30612 -85.37745 39348 ft 562 kts 89°
2026-05-05 17:44 42.30527 -85.32546 39658 ft 561 kts 91°
2026-05-05 17:44 42.30437 -85.27297 39929 ft 559 kts 90°
2026-05-05 17:45 42.30345 -85.22093 40230 ft 557 kts 90°
2026-05-05 17:45 42.30253 -85.16904 40477 ft 556 kts 91°
2026-05-05 17:45 42.30157 -85.11627 40660 ft 556 kts 90°
2026-05-05 17:45 42.30059 -85.06509 40956 ft 551 kts 91°
2026-05-05 17:46 42.29954 -85.01291 40964 ft 553 kts 91°
2026-05-05 17:46 42.29708 -84.91006 40970 ft 552 kts 90°
2026-05-05 17:47 42.29457 -84.80662 40964 ft 550 kts 91°
2026-05-05 17:47 42.29196 -84.70401 40968 ft 553 kts 90°
2026-05-05 17:48 42.28924 -84.60034 40954 ft 550 kts 90°
2026-05-05 17:48 42.28713 -84.49747 40971 ft 551 kts 86°
2026-05-05 17:49 42.29756 -84.39590 40964 ft 546 kts 76°
2026-05-05 17:49 42.31147 -84.29587 40939 ft 547 kts 76°
2026-05-05 17:50 42.32560 -84.19529 40943 ft 546 kts 76°
2026-05-05 17:50 42.33975 -84.09444 40933 ft 547 kts 76°
2026-05-05 17:51 42.35381 -83.99371 40947 ft 548 kts 77°
2026-05-05 17:51 42.36773 -83.89336 40950 ft 549 kts 76°
2026-05-05 17:52 42.38160 -83.79250 40961 ft 546 kts 77°
2026-05-05 17:52 42.39539 -83.69169 40958 ft 548 kts 76°
2026-05-05 17:53 42.41082 -83.59088 40974 ft 544 kts 68°
2026-05-05 17:53 42.43618 -83.49538 40961 ft 543 kts 65°
2026-05-05 17:54 42.46209 -83.40063 40967 ft 540 kts 65°
2026-05-05 17:54 42.48823 -83.30523 40931 ft 541 kts 66°
2026-05-05 17:55 42.51433 -83.20964 40954 ft 542 kts 65°
2026-05-05 17:55 42.54028 -83.11431 40948 ft 540 kts 66°
2026-05-05 17:56 42.56597 -83.01963 40950 ft 540 kts 66°
2026-05-05 17:56 42.59177 -82.92413 40942 ft 542 kts 66°
2026-05-05 17:57 42.61751 -82.82838 40927 ft 539 kts 66°
2026-05-05 17:57 42.64298 -82.73334 40953 ft 540 kts 66°
2026-05-05 17:58 42.66850 -82.63779 40931 ft 542 kts 66°
2026-05-05 17:58 42.69408 -82.54147 40953 ft 539 kts 66°
2026-05-05 17:59 42.71934 -82.44622 40953 ft 539 kts 66°
2026-05-05 17:59 42.74455 -82.35058 40940 ft 540 kts 66°
2026-05-05 18:00 42.76976 -82.25467 40934 ft 541 kts 68°
2026-05-05 18:00 42.79501 -82.15815 40933 ft 542 kts 68°
2026-05-05 18:01 42.81993 -82.06260 40937 ft 539 kts 68°
2026-05-05 18:01 42.84479 -81.96674 40931 ft 539 kts 68°
2026-05-05 18:02 42.86961 -81.87073 40928 ft 538 kts 67°
2026-05-05 18:02 42.89443 -81.77442 40938 ft 540 kts 68°
2026-05-05 18:03 42.91906 -81.67832 40946 ft 540 kts 68°
2026-05-05 18:03 42.94374 -81.58171 40967 ft 542 kts 68°
2026-05-05 18:04 42.96835 -81.48502 40953 ft 542 kts 68°
2026-05-05 18:04 42.99280 -81.38844 40954 ft 541 kts 68°
2026-05-05 18:05 43.01737 -81.29102 40899 ft 540 kts 69°
2026-05-05 18:05 43.04154 -81.19474 40915 ft 542 kts 69°
2026-05-05 18:06 43.06635 -81.09765 40933 ft 540 kts 65°
2026-05-05 18:06 43.09777 -81.00515 40942 ft 535 kts 61°
2026-05-05 18:07 43.12952 -80.91312 40868 ft 536 kts 61°
2026-05-05 18:07 43.16105 -80.82150 40915 ft 534 kts 62°
2026-05-05 18:08 43.19256 -80.72971 40885 ft 534 kts 61°
2026-05-05 18:08 43.22378 -80.63844 40874 ft 531 kts 61°
2026-05-05 18:09 43.25496 -80.54699 40877 ft 531 kts 62°
2026-05-05 18:09 43.28611 -80.45527 40918 ft 532 kts 62°
2026-05-05 18:10 43.31710 -80.36379 40888 ft 528 kts 62°
2026-05-05 18:10 43.34809 -80.27198 40848 ft 531 kts 63°
2026-05-05 18:11 43.37880 -80.18060 40908 ft 530 kts 63°
2026-05-05 18:11 43.40949 -80.08908 40869 ft 528 kts 62°
2026-05-05 18:12 43.44017 -79.99726 40889 ft 530 kts 63°
2026-05-05 18:12 43.47078 -79.90525 40877 ft 528 kts 63°
2026-05-05 18:13 43.50114 -79.81377 40852 ft 529 kts 63°
2026-05-05 18:13 43.53160 -79.72164 40904 ft 530 kts 63°
2026-05-05 18:14 43.56191 -79.62965 40915 ft 529 kts 64°
2026-05-05 18:14 43.59227 -79.53719 40880 ft 530 kts 63°
2026-05-05 18:15 43.62235 -79.44532 40944 ft 532 kts 64°
2026-05-05 18:15 43.65196 -79.35189 40881 ft 531 kts 69°